Wind_Speed
16 14 12 12 12 12 11 8 6 6 7 9 10 12 15 15 16 18 19 20 17 18 18 17 16 15 13 10 7 6 3 3 3 3 4 6 8 9 11 11 12 12 12 12
17 15 15 15 14 13 12 10 8 6 8 11 12 14 15 15 15 17 18 18 17 18 18 17 15 14 12 10 7 4 2 2 2 3 4 5 7 8 9 11 11 12 12 12
17 16 17 16 16 14 13 12 10 10 11 13 15 15 15 14 15 14 15 17 18 18 17 16 15 13 11 9 7 4 1 1 2 4 4 5 6 8 9 10 11 12 12 12
19 19 18 17 16 14 13 12 13 13 14 15 16 16 14 15 15 14 15 16 17 17 17 15 14 12 9 8 5 2 0 1 2 4 4 6 6 8 9 10 12 12 13 12
18 19 19 17 15 15 14 14 15 15 16 15 15 16 14 15 15 14 15 15 16 16 16 14 12 9 7 6 4 3 1 1 2 3 5 6 7 8 9 10 11 12 12 12
19 20 19 17 16 15 15 16 17 17 16 14 14 15 14 16 15 14 13 14 15 15 14 13 10 8 6 5 4 3 2 1 2 3 4 5 7 8 9 10 11 12 12 12
21 20 19 18 17 16 16 17 17 17 15 12 13 15 14 15 13 13 12 13 15 14 12 11 9 8 6 4 3 3 1 0 1 2 3 5 5 7 8 10 12 12 12 13
23 21 19 18 16 16 16 17 17 16 14 13 13 13 13 13 12 11 11 12 14 13 10 9 9 7 6 4 3 2 1 1 1 2 3 4 5 6 8 10 11 12 12 12
23 21 20 19 17 17 16 16 17 17 16 15 14 14 12 11 11 10 10 12 13 11 10 10 8 6 5 4 3 3 2 2 2 2 2 3 4 5 7 9 10 11 11 12
23 22 21 21 20 18 16 16 18 19 18 16 15 13 12 12 13 11 12 11 10 10 10 10 8 7 6 4 3 4 3 3 2 2 3 3 4 4 6 7 8 10 11 12
24 23 22 23 21 18 17 16 18 20 20 18 17 15 15 15 14 13 14 12 10 9 9 9 8 6 5 5 4 4 4 3 2 3 3 4 4 5 6 6 7 8 10 12
23 24 23 22 20 19 19 17 17 20 20 20 21 18 17 16 15 14 13 12 11 9 9 9 8 7 6 6 5 5 5 4 3 4 4 4 5 6 6 7 8 9 10 11
23 26 25 24 24 23 21 19 18 18 20 22 23 21 19 18 16 14 14 13 12 10 10 9 8 7 7 6 6 5 5 5 4 5 5 5 6 6 7 8 9 10 11 11
25 27 27 26 24 24 23 20 19 20 20 21 21 21 21 20 18 16 15 14 14 11 10 10 8 8 8 7 6 6 6 6 6 7 7 7 7 7 8 8 10 10 11 12
29 29 28 28 28 27 26 24 22 22 21 21 21 21 21 21 20 18 17 16 15 13 12 12 11 10 10 9 9 8 8 8 8 8 8 8 9 9 9 10 10 10 12 13
32 31 30 30 30 30 30 28 26 24 23 22 23 23 22 22 22 19 18 18 17 14 14 13 12 11 11 10 10 10 10 10 10 10 10 10 10 10 10 11 11 11 12 13
36 34 32 32 33 32 32 29 29 28 25 25 24 23 23 24 22 21 21 20 19 16 15 14 13 13 11 11 11 11 11 11 12 12 12 12 12 12 12 12 11 12 13 14
39 37 35 33 33 36 32 31 31 30 28 27 26 24 24 23 23 23 23 22 19 18 16 16 14 14 14 13 13 13 14 14 13 14 14 14 14 14 14 14 13 13 13 14
41 39 37 35 36 36 33 33 32 31 31 30 29 26 25 25 25 24 24 23 22 21 19 18 17 17 15 15 15 15 15 15 15 15 16 15 15 15 16 15 15 15 15 16
43 41 39 38 37 37 34 33 35 35 34 31 30 28 28 28 27 26 25 24 23 22 21 19 19 18 17 16 17 18 17 17 17 17 17 18 17 17 17 17 18 17 17 18
46 43 41 39 38 37 33 34 35 36 35 33 32 30 29 29 28 27 27 26 26 24 23 22 21 20 19 18 19 19 19 19 19 19 20 20 19 19 19 19 19 19 19 19
45 45 43 41 40 37 34 34 35 35 34 33 32 31 30 30 30 29 27 27 27 26 24 24 22 22 21 21 21 21 21 21 21 21 21 21 21 21 21 21 21 21 21 21
44 45 44 42 40 37 35 35 36 36 36 35 34 33 31 31 30 29 28 28 27 26 25 24 23 23 23 23 22 22 22 23 23 22 22 22 22 23 23 23 22 23 23 23
42 43 42 41 41 39 37 36 36 37 37 36 37 36 34 32 31 31 31 29 29 29 27 26 25 25 24 24 24 24 25 24 24 24 23 23 23 24 24 23 23 23 24 25
41 41 41 40 39 37 36 36 36 36 37 37 37 36 36 35 34 32 30 29 28 28 27 26 26 26 26 25 25 26 26 26 25 25 25 24 24 24 24 24 23 23 23 24
40 40 40 39 36 35 35 35 35 36 37 38 37 37 36 35 34 33 31 31 31 29 28 27 27 27 26 26 26 26 26 26 25 25 24 25 24 24 23 23 23 23 24 24
Wind_Direction
231 232 234 236 237 241 248 247 256 269 283 288 293 299 301 307 312 323 331 334 338 344 344 341 340 340 338 339 342 335 285 271 258 243 210 198 197 199 201 204 203 206 206 205
231 231 233 235 237 243 248 249 243 246 268 279 287 289 292 300 310 321 328 333 338 340 340 340 341 341 339 336 334 330 283 271 232 215 202 198 197 199 202 203 203 206 207 207
229 230 235 239 239 240 245 250 238 236 251 268 277 283 288 292 304 314 326 332 336 338 337 336 337 338 337 339 338 337 296 232 227 210 204 202 203 206 207 205 207 207 206 205
228 233 239 244 244 242 242 242 235 238 246 257 270 278 281 287 296 306 321 329 332 336 337 335 335 336 340 345 348 6 335 236 219 215 212 214 216 212 211 211 211 212 210 211
227 234 240 243 242 242 241 239 240 241 247 253 262 272 277 283 289 302 319 327 330 334 334 332 334 337 344 357 5 18 11 240 230 230 226 224 224 219 217 215 212 211 213 215
228 234 240 243 240 239 239 242 244 247 251 255 262 268 274 283 286 299 316 325 328 332 331 330 332 338 346 354 0 352 332 266 240 238 230 223 223 222 219 216 217 215 215 219
232 235 241 243 243 240 240 245 247 247 253 256 260 266 277 285 288 296 311 321 326 330 332 332 335 337 342 348 351 346 324 282 231 229 234 232 231 226 223 222 221 221 221 221
233 232 237 241 243 243 242 246 248 250 250 247 255 269 281 283 286 291 308 323 327 327 329 331 334 341 347 348 353 354 343 323 282 232 241 237 240 236 233 226 223 223 226 229
232 229 230 234 234 236 238 242 246 247 248 250 257 269 279 285 288 294 304 317 324 325 324 329 336 336 340 348 351 344 341 329 302 262 258 264 256 241 235 230 227 226 227 231
229 228 228 229 228 230 233 238 241 243 247 253 258 262 275 283 289 296 305 314 319 321 323 326 325 323 322 330 340 339 334 314 296 285 263 257 260 243 233 228 228 228 229 233
227 228 225 228 229 228 230 235 240 244 245 247 253 258 268 281 291 300 308 307 317 320 327 322 322 320 319 322 325 335 333 320 283 272 275 266 257 248 242 237 238 239 237 238
225 228 225 226 228 230 230 232 240 244 244 247 251 255 263 276 287 295 301 301 306 314 323 317 316 319 317 318 313 316 324 312 295 280 281 278 273 263 260 255 249 247 244 243
221 225 223 221 224 229 230 232 238 243 244 246 250 255 259 270 279 288 291 292 302 310 321 314 311 313 309 304 303 300 306 306 299 296 294 287 279 270 266 266 258 252 250 250
222 227 226 225 225 228 230 232 237 240 243 247 250 254 255 264 271 281 289 293 303 305 313 313 313 307 304 296 294 294 291 297 298 295 293 292 285 285 281 282 268 260 256 253
223 227 227 226 224 227 228 228 232 237 242 246 249 253 254 261 267 274 283 292 296 298 306 307 311 304 301 298 293 289 288 290 292 292 291 292 292 291 290 284 276 266 261 260
227 231 231 229 228 229 230 230 231 236 238 243 247 249 251 256 263 268 277 284 289 293 299 300 301 303 300 294 293 290 291 290 288 289 290 289 288 288 288 283 275 270 270 266
228 231 234 232 230 230 231 232 234 236 237 240 245 251 252 256 262 273 276 283 287 286 295 301 299 299 298 292 289 289 290 291 288 286 286 287 284 282 282 281 280 274 273 271
229 232 235 235 233 232 232 231 235 236 237 240 245 249 253 256 261 270 276 282 284 284 295 296 294 296 296 293 288 285 284 288 288 286 285 287 285 280 281 280 281 279 278 277
231 234 236 237 235 235 233 231 233 236 238 241 244 248 253 256 260 267 275 281 288 287 291 289 287 291 292 289 287 286 284 285 286 285 284 283 284 282 280 280 283 280 279 280
231 235 237 238 237 235 233 233 234 238 241 242 245 248 252 257 259 265 271 276 282 286 285 285 285 287 286 285 286 287 286 283 282 282 281 281 282 281 279 280 282 281 281 281
228 233 236 238 239 237 233 232 235 238 243 246 249 252 253 257 263 265 268 272 277 279 280 281 283 283 283 282 283 284 283 281 280 280 280 280 280 280 278 278 280 280 280 280
228 231 234 236 238 237 234 233 234 239 243 246 248 253 256 259 262 263 266 271 273 274 276 280 280 279 280 280 280 281 280 280 279 279 279 279 278 278 278 278 279 280 281 282
228 231 233 235 238 239 237 235 235 239 242 245 251 254 255 257 261 261 266 270 273 276 279 279 279 278 279 279 278 278 278 279 278 278 277 278 278 277 277 278 280 281 281 282
229 230 231 234 238 240 238 236 236 238 242 246 250 255 257 261 261 264 265 268 269 274 277 278 277 277 278 277 276 277 277 277 276 276 276 277 276 276 277 279 281 281 281 281
228 230 233 236 238 239 238 237 238 240 242 245 250 255 259 261 262 264 265 266 270 273 275 278 278 277 276 276 277 276 275 275 274 274 275 275 276 277 278 279 281 282 283 284
229 231 233 235 236 237 238 239 239 241 243 247 250 253 257 261 264 264 263 265 268 272 275 277 277 276 275 275 275 275 275 275 272 272 272 274 276 278 279 280 281 282 283 284
Height
5898 5901 5902 5903 5903 5904 5903 5903 5904 5904 5903 5903 5902 5902 5902 5901 5899 5898 5896 5893 5890 5888 5886 5883 5880 5877 5874 5872 5871 5870 5870 5870 5870 5871 5873 5874 5875 5876 5878 5880 5882 5884 5885 5887
5895 5897 5898 5898 5899 5900 5901 5901 5902 5902 5902 5901 5900 5900 5900 5898 5898 5896 5894 5892 5889 5887 5884 5882 5879 5876 5873 5872 5870 5869 5869 5869 5870 5871 5872 5873 5874 5876 5877 5879 5880 5882 5884 5885
5891 5894 5893 5895 5896 5897 5898 5899 5900 5900 5900 5899 5898 5898 5897 5897 5895 5895 5893 5891 5888 5886 5883 5881 5879 5876 5873 5871 5870 5869 5869 5869 5869 5870 5871 5872 5874 5875 5876 5877 5879 5881 5882 5884
5886 5888 5889 5891 5892 5893 5894 5895 5896 5897 5897 5897 5897 5896 5895 5894 5893 5892 5891 5889 5887 5885 5883 5880 5878 5875 5872 5871 5869 5869 5868 5869 5869 5870 5871 5872 5873 5874 5875 5876 5877 5879 5881 5882
5883 5884 5885 5887 5889 5889 5891 5892 5892 5893 5893 5894 5894 5893 5893 5892 5891 5890 5890 5888 5886 5883 5881 5879 5876 5874 5872 5870 5869 5868 5868 5868 5869 5869 5870 5871 5872 5873 5874 5874 5876 5877 5879 5881
5878 5879 5881 5883 5884 5885 5887 5888 5889 5889 5890 5891 5891 5890 5890 5888 5888 5888 5887 5886 5884 5882 5880 5877 5875 5873 5871 5870 5869 5869 5868 5868 5868 5869 5869 5870 5870 5871 5872 5874 5875 5876 5877 5879
5872 5875 5877 5878 5880 5881 5883 5884 5885 5886 5886 5888 5887 5886 5888 5886 5886 5886 5885 5884 5883 5880 5878 5876 5874 5872 5871 5869 5869 5868 5868 5868 5868 5868 5868 5869 5869 5870 5871 5872 5873 5874 5876 5877
5866 5870 5873 5874 5876 5878 5879 5880 5882 5883 5883 5884 5884 5883 5885 5883 5883 5883 5883 5881 5880 5879 5877 5875 5874 5872 5870 5869 5868 5867 5867 5867 5867 5867 5867 5867 5868 5868 5869 5870 5871 5873 5874 5875
5861 5865 5868 5869 5871 5873 5875 5876 5878 5879 5879 5880 5880 5881 5880 5880 5880 5880 5880 5879 5877 5876 5875 5874 5872 5871 5870 5868 5867 5866 5866 5866 5865 5865 5865 5866 5866 5867 5867 5868 5869 5870 5871 5873
5856 5859 5863 5864 5866 5868 5871 5872 5873 5874 5875 5876 5877 5877 5878 5877 5877 5877 5877 5876 5875 5875 5874 5873 5871 5870 5869 5867 5867 5866 5865 5864 5864 5864 5864 5865 5865 5865 5865 5866 5867 5868 5869 5870
5850 5853 5857 5859 5861 5864 5866 5868 5869 5870 5872 5873 5873 5877 5875 5875 5875 5875 5874 5873 5874 5873 5872 5871 5869 5868 5868 5867 5866 5865 5864 5863 5863 5863 5863 5863 5863 5864 5864 5864 5865 5866 5866 5867
5844 5847 5851 5854 5857 5859 5861 5863 5865 5867 5868 5869 5870 5874 5872 5872 5872 5871 5871 5871 5871 5870 5870 5869 5867 5867 5866 5866 5865 5864 5863 5862 5862 5862 5862 5862 5862 5862 5862 5862 5863 5863 5863 5864
5839 5842 5846 5849 5854 5855 5857 5859 5861 5863 5864 5865 5866 5870 5868 5869 5869 5869 5869 5869 5869 5869 5868 5867 5865 5865 5865 5864 5864 5863 5862 5861 5861 5861 5861 5861 5861 5860 5860 5860 5860 5860 5860 5861
5833 5836 5841 5845 5848 5850 5852 5855 5857 5858 5859 5861 5862 5864 5865 5865 5866 5866 5866 5867 5867 5866 5866 5865 5864 5863 5863 5863 5862 5862 5861 5861 5860 5860 5860 5860 5859 5859 5858 5858 5857 5857 5857 5858
5827 5830 5834 5839 5842 5844 5847 5849 5851 5853 5855 5856 5858 5859 5861 5862 5862 5863 5863 5864 5864 5863 5863 5863 5862 5861 5861 5860 5860 5859 5859 5859 5859 5859 5858 5858 5857 5856 5856 5855 5855 5854 5854 5854
5822 5825 5829 5833 5837 5839 5841 5844 5846 5848 5850 5851 5852 5854 5856 5857 5858 5859 5860 5861 5861 5860 5860 5860 5859 5858 5858 5857 5857 5857 5857 5857 5856 5856 5856 5855 5854 5853 5853 5852 5851 5851 5850 5850
5816 5820 5824 5827 5830 5833 5836 5840 5841 5843 5844 5846 5847 5850 5851 5853 5854 5855 5856 5857 5857 5858 5857 5856 5855 5854 5854 5854 5854 5854 5854 5854 5853 5853 5852 5851 5851 5850 5849 5848 5847 5847 5846 5846
5810 5813 5817 5821 5825 5826 5833 5835 5836 5838 5840 5841 5842 5844 5846 5848 5850 5851 5852 5852 5852 5853 5853 5852 5852 5851 5851 5850 5850 5850 5850 5850 5849 5849 5848 5848 5847 5846 5845 5844 5843 5843 5842 5842
5803 5807 5810 5814 5817 5820 5826 5828 5830 5832 5834 5836 5838 5840 5842 5843 5845 5846 5847 5848 5848 5848 5848 5848 5848 5848 5847 5846 5845 5846 5846 5846 5845 5845 5844 5844 5843 5842 5841 5840 5839 5838 5838 5837
5796 5799 5803 5806 5810 5813 5820 5823 5824 5827 5827 5830 5833 5835 5837 5838 5840 5842 5842 5843 5843 5843 5843 5842 5843 5843 5843 5842 5842 5841 5841 5841 5840 5840 5839 5839 5838 5837 5836 5835 5834 5833 5832 5831
5788 5791 5794 5798 5802 5806 5813 5816 5818 5821 5823 5825 5827 5829 5831 5833 5835 5836 5836 5837 5837 5837 5837 5837 5837 5837 5837 5837 5837 5836 5836 5835 5835 5835 5834 5833 5833 5832 5831 5830 5829 5828 5827 5826
5780 5784 5787 5791 5794 5801 5805 5809 5812 5814 5817 5818 5820 5822 5824 5825 5827 5828 5829 5830 5830 5830 5831 5830 5830 5831 5831 5831 5831 5831 5830 5829 5829 5829 5828 5828 5827 5826 5825 5824 5823 5822 5821 5820
5770 5775 5780 5784 5789 5793 5797 5801 5805 5807 5810 5812 5813 5815 5817 5818 5820 5821 5823 5823 5823 5824 5824 5824 5824 5824 5824 5824 5825 5824 5824 5823 5823 5822 5821 5821 5820 5820 5819 5818 5817 5816 5815 5814
5762 5766 5771 5775 5780 5785 5789 5793 5796 5799 5802 5805 5806 5808 5810 5811 5813 5814 5815 5816 5816 5817 5818 5818 5818 5818 5818 5818 5818 5818 5817 5817 5816 5815 5815 5814 5813 5813 5812 5811 5810 5809 5808 5806
5754 5759 5762 5767 5772 5776 5781 5785 5788 5792 5794 5797 5799 5801 5802 5803 5804 5806 5807 5808 5809 5810 5810 5811 5811 5810 5810 5811 5811 5810 5810 5810 5809 5808 5807 5807 5806 5805 5804 5804 5803 5802 5801 5799
5746 5751 5755 5759 5764 5769 5773 5777 5780 5783 5786 5789 5791 5793 5794 5795 5797 5798 5799 5800 5801 5802 5803 5803 5803 5803 5804 5803 5803 5803 5802 5802 5801 5801 5800 5799 5798 5798 5797 5796 5796 5794 5793 5791